�������l�o���
Date,Time,MP-1(��Sv/h),MP-2(��Sv/h),MP-3(��Sv/h),MP-4(��Sv/h),MP-5(��Sv/h),MP-6(��Sv/h),MP-7(��Sv/h),MP-8(��Sv/h),����,����(m/s),���J
2023/05/23,00:00,0.544,0.785,0.488,0.953,0.691,0.328,0.562,0.532,�k��,3.8,�L
2023/05/23,00:10,0.543,0.784,0.487,0.951,0.689,0.327,0.563,0.533,�k��,3.2,�L
2023/05/23,00:20,0.544,0.782,0.487,0.951,0.691,0.328,0.561,0.533,�k��,2.8,�L
2023/05/23,00:30,0.540,0.782,0.487,0.949,0.689,0.325,0.561,0.532,�k��,2.9,�L
2023/05/23,00:40,0.541,0.779,0.484,0.946,0.689,0.323,0.561,0.532,�k��,2.8,�L
2023/05/23,00:50,0.539,0.779,0.484,0.948,0.689,0.324,0.561,0.531,�k��,3.8,�L
2023/05/23,01:00,0.539,0.781,0.483,0.944,0.687,0.322,0.561,0.532,�k��,3.6,�L
2023/05/23,01:10,0.540,0.781,0.484,0.942,0.689,0.323,0.559,0.530,�k��,3.7,�L
2023/05/23,01:20,0.538,0.781,0.483,0.943,0.685,0.322,0.560,0.531,�k��,3.7,�L
2023/05/23,01:30,0.540,0.780,0.482,0.944,0.684,0.321,0.559,0.530,�k��,3.3,�L
2023/05/23,01:40,0.536,0.778,0.481,0.945,0.686,0.320,0.559,0.531,�k��,3.1,�L
2023/05/23,01:50,0.537,0.777,0.481,0.944,0.684,0.319,0.561,0.530,�k��,3.0,�L
2023/05/23,02:00,0.537,0.779,0.479,0.943,0.684,0.321,0.561,0.531,�k��,3.5,�L
2023/05/23,02:10,0.537,0.779,0.480,0.943,0.685,0.320,0.562,0.532,�k��,3.4,�L
2023/05/23,02:20,0.536,0.777,0.479,0.944,0.685,0.318,0.561,0.533,�k��,4.0,�L
2023/05/23,02:30,0.537,0.778,0.478,0.942,0.684,0.321,0.560,0.532,�k��,3.9,�L
2023/05/23,02:40,0.536,0.776,0.480,0.944,0.684,0.321,0.561,0.531,�k��,2.3,�L
2023/05/23,02:50,0.537,0.780,0.479,0.945,0.685,0.319,0.560,0.531,�k��,3.0,�L
2023/05/23,03:00,0.535,0.778,0.478,0.945,0.686,0.319,0.561,0.532,�k��,2.5,�L
2023/05/23,03:10,0.535,0.779,0.478,0.944,0.683,0.318,0.559,0.532,�k��,3.5,�L
2023/05/23,03:20,0.535,0.780,0.480,0.941,0.684,0.319,0.561,0.533,���k��,3.7,�L
2023/05/23,03:30,0.537,0.777,0.480,0.944,0.684,0.320,0.560,0.530,�k��,3.7,�L
2023/05/23,03:40,0.536,0.778,0.481,0.945,0.686,0.320,0.562,0.530,�k��,3.6,�L
2023/05/23,03:50,0.536,0.780,0.479,0.945,0.684,0.319,0.562,0.531,�k��,3.9,�L
2023/05/23,04:00,0.536,0.778,0.480,0.946,0.682,0.321,0.561,0.532,�k��,4.1,�L
2023/05/23,04:10,0.536,0.778,0.479,0.944,0.685,0.321,0.562,0.532,���k��,5.4,�L
2023/05/23,04:20,0.537,0.778,0.480,0.947,0.684,0.319,0.563,0.529,�k��,5.1,�L
2023/05/23,04:30,0.537,0.777,0.479,0.943,0.684,0.318,0.561,0.531,�k��,5.0,�L
2023/05/23,04:40,0.535,0.778,0.477,0.943,0.684,0.320,0.561,0.532,�k��,5.2,�L
2023/05/23,04:50,0.536,0.777,0.479,0.942,0.683,0.319,0.561,0.531,�k��,5.4,�L
2023/05/23,05:00,0.535,0.779,0.478,0.945,0.685,0.319,0.561,0.531,�k��,5.9,�L
2023/05/23,05:10,0.536,0.778,0.477,0.945,0.686,0.319,0.561,0.532,�k��,6.3,�L
2023/05/23,05:20,0.537,0.780,0.479,0.943,0.685,0.321,0.561,0.531,�k��,6.1,�L
2023/05/23,05:30,0.538,0.778,0.480,0.945,0.686,0.320,0.563,0.530,�k��,5.4,�L
2023/05/23,05:40,0.535,0.778,0.481,0.946,0.686,0.321,0.563,0.532,�k��,4.4,�L
2023/05/23,05:50,0.538,0.779,0.480,0.947,0.684,0.321,0.561,0.532,�k��,4.4,�L
2023/05/23,06:00,0.536,0.778,0.481,0.946,0.684,0.322,0.562,0.533,�k��,3.9,�L
2023/05/23,06:10,0.538,0.777,0.480,0.946,0.685,0.320,0.561,0.532,�k��,4.3,�L
2023/05/23,06:20,0.535,0.778,0.480,0.945,0.685,0.321,0.560,0.532,�k��,4.2,�L
2023/05/23,06:30,0.537,0.778,0.478,0.947,0.683,0.322,0.560,0.532,�k��,4.1,�L
2023/05/23,06:40,0.536,0.777,0.480,0.943,0.683,0.319,0.559,0.531,�k��,4.8,�L
2023/05/23,06:50,0.537,0.777,0.480,0.944,0.685,0.321,0.561,0.530,�k��,5.7,�L
2023/05/23,07:00,0.537,0.779,0.481,0.946,0.683,0.321,0.560,0.532,�k��,4.9,�L
2023/05/23,07:10,0.537,0.779,0.481,0.946,0.685,0.321,0.560,0.530,�k��,6.0,�L
2023/05/23,07:20,0.536,0.778,0.480,0.946,0.686,0.323,0.560,0.533,�k��,6.0,�L
2023/05/23,07:30,0.539,0.777,0.482,0.946,0.685,0.324,0.561,0.532,�k��,5.4,�L
2023/05/23,07:40,0.540,0.779,0.482,0.948,0.686,0.323,0.561,0.531,�k��,4.9,�L
2023/05/23,07:50,0.539,0.779,0.482,0.945,0.684,0.323,0.561,0.532,�k��,4.4,�L
2023/05/23,08:00,0.538,0.777,0.481,0.945,0.684,0.323,0.562,0.529,�k��,4.6,�L
2023/05/23,08:10,0.538,0.776,0.481,0.946,0.684,0.322,0.560,0.530,�k��,4.7,�L
2023/05/23,08:20,0.536,0.776,0.482,0.946,0.683,0.322,0.559,0.530,�k��,3.2,�L
2023/05/23,08:30,0.537,0.777,0.482,0.946,0.681,0.321,0.560,0.530,���k��,3.2,�L
2023/05/23,08:40,0.535,0.776,0.480,0.944,0.683,0.321,0.561,0.530,���k��,3.3,�L
2023/05/23,08:50,0.533,0.775,0.479,0.942,0.680,0.321,0.560,0.529,���k��,3.5,�L
2023/05/23,09:00,0.532,0.777,0.479,0.945,0.681,0.320,0.561,0.529,���k��,2.9,�L
2023/05/23,09:10,0.532,0.777,0.478,0.944,0.682,0.320,0.560,0.530,�k��,3.2,�L
2023/05/23,09:20,0.533,0.776,0.480,0.946,0.685,0.321,0.557,0.531,�k��,3.0,�L
2023/05/23,09:30,0.534,0.776,0.478,0.945,0.682,0.319,0.559,0.532,�k��,2.3,�L
2023/05/23,09:40,0.533,0.777,0.478,0.945,0.683,0.320,0.561,0.531,�k��,1.1,�L
2023/05/23,09:50,0.535,0.778,0.480,0.945,0.683,0.321,0.561,0.530,���k��,2.3,�L
2023/05/23,10:00,0.535,0.778,0.480,0.947,0.685,0.320,0.561,0.531,���k��,2.6,�L
2023/05/23,10:10,0.536,0.779,0.480,0.948,0.685,0.322,0.560,0.531,�k��,2.2,�L
2023/05/23,10:20,0.536,0.776,0.481,0.949,0.684,0.321,0.560,0.530,�k��,1.7,�L
2023/05/23,10:30,0.534,0.779,0.480,0.948,0.684,0.321,0.562,0.530,�k�k��,2.3,�L
2023/05/23,10:40,0.536,0.777,0.481,0.946,0.679,0.320,0.560,0.532,�k�k��,2.9,�L
2023/05/23,10:50,0.534,0.779,0.481,0.946,0.679,0.321,0.560,0.530,�k�k��,2.8,�L
2023/05/23,11:00,0.533,0.776,0.480,0.947,0.684,0.320,0.560,0.530,�k�k��,2.9,�L
2023/05/23,11:10,0.534,0.777,0.480,0.946,0.684,0.319,0.561,0.531,�k,3.1,�L
2023/05/23,11:20,0.536,0.776,0.480,0.945,0.685,0.318,0.558,0.531,�k�k��,3.4,�L
2023/05/23,11:30,0.538,0.777,0.478,0.944,0.684,0.320,0.560,0.531,�k�k��,2.8,�L
2023/05/23,11:40,0.537,0.778,0.481,0.947,0.683,0.321,0.561,0.532,�k�k��,2.5,�L
2023/05/23,11:50,0.537,0.775,0.479,0.946,0.683,0.320,0.559,0.530,�k�k��,2.6,�L
2023/05/23,12:00,0.536,0.776,0.480,0.945,0.682,0.321,0.561,0.529,�k,2.5,�L
2023/05/23,12:10,0.536,0.775,0.480,0.946,0.683,0.320,0.560,0.530,�k�k��,2.5,�L
2023/05/23,12:20,0.535,0.775,0.480,0.947,0.681,0.322,0.561,0.529,�k,2.2,�L
2023/05/23,12:30,0.536,0.770,0.480,0.945,0.681,0.321,0.560,0.529,�k�k��,2.3,�L
2023/05/23,12:40,0.535,0.773,0.479,0.946,0.683,0.322,0.560,0.528,�k�k��,2.6,�L
2023/05/23,12:50,0.535,0.771,0.480,0.945,0.680,0.321,0.562,0.531,�k,2.2,�L
2023/05/23,13:00,0.536,0.771,0.480,0.945,0.680,0.322,0.561,0.530,�k,1.9,�L
2023/05/23,13:10,0.535,0.773,0.479,0.947,0.681,0.323,0.561,0.530,�k��,2.3,�L
2023/05/23,13:20,0.533,0.770,0.481,0.944,0.679,0.322,0.560,0.530,�k�k��,2.9,�L
2023/05/23,13:30,0.534,0.772,0.481,0.945,0.680,0.322,0.560,0.530,�k�k��,2.6,�L
2023/05/23,13:40,0.535,0.772,0.481,0.941,0.680,0.321,0.560,0.530,�k�k��,2.2,�L
2023/05/23,13:50,0.534,0.772,0.478,0.943,0.680,0.320,0.560,0.530,�k�k��,2.5,�L
2023/05/23,14:00,0.534,0.771,0.481,0.943,0.680,0.320,0.561,0.531,�k�k��,2.3,�L
2023/05/23,14:10,0.533,0.776,0.479,0.944,0.681,0.321,0.560,0.530,�k�k��,3.0,�L
2023/05/23,14:20,0.535,0.770,0.478,0.944,0.678,0.321,0.560,0.531,�k�k��,2.3,�L
2023/05/23,14:30,0.534,0.774,0.477,0.944,0.679,0.319,0.560,0.533,�k,2.6,�L
2023/05/23,14:40,0.535,0.774,0.479,0.942,0.678,0.321,0.560,0.531,�k�k��,2.0,�L
2023/05/23,14:50,0.535,0.775,0.476,0.943,0.680,0.320,0.561,0.531,�k,2.6,�L
2023/05/23,15:00,0.536,0.773,0.477,0.943,0.680,0.319,0.559,0.529,�k�k��,1.7,�L
2023/05/23,15:10,0.532,0.772,0.476,0.942,0.679,0.318,0.560,0.533,�k�k��,2.5,�L
2023/05/23,15:20,0.533,0.773,0.475,0.942,0.679,0.319,0.559,0.532,�k�k��,1.9,�L
2023/05/23,15:30,0.533,0.770,0.476,0.941,0.679,0.318,0.559,0.529,�k�k��,1.9,�L
2023/05/23,15:40,0.534,0.772,0.476,0.943,0.679,0.319,0.559,0.532,�k�k��,2.0,�L
2023/05/23,15:50,0.534,0.773,0.475,0.944,0.680,0.319,0.559,0.532,�k�k��,2.6,�L
2023/05/23,16:00,0.533,0.774,0.478,0.941,0.679,0.318,0.561,0.531,�k�k��,3.6,�L
2023/05/23,16:10,0.534,0.774,0.477,0.943,0.679,0.317,0.560,0.531,�k�k��,3.8,�L
2023/05/23,16:20,0.534,0.772,0.477,0.944,0.681,0.316,0.560,0.531,�k,4.2,��
2023/05/23,16:30,0.532,0.773,0.477,0.944,0.680,0.316,0.561,0.529,�k�k��,5.3,��
2023/05/23,16:40,0.531,0.773,0.475,0.943,0.680,0.317,0.560,0.529,�k�k��,5.0,��
2023/05/23,16:50,0.531,0.771,0.475,0.943,0.679,0.317,0.560,0.529,�k�k��,4.1,��
2023/05/23,17:00,0.532,0.772,0.476,0.942,0.680,0.317,0.560,0.530,�k�k��,4.3,��
2023/05/23,17:10,0.533,0.774,0.476,0.943,0.681,0.316,0.560,0.529,�k�k��,4.8,�L
2023/05/23,17:20,0.533,0.775,0.476,0.944,0.678,0.317,0.560,0.531,�k�k��,6.0,��
2023/05/23,17:30,0.535,0.774,0.475,0.944,0.678,0.316,0.559,0.530,�k,6.4,��
2023/05/23,17:40,0.532,0.774,0.478,0.943,0.680,0.317,0.561,0.531,�k�k��,7.8,�L
2023/05/23,17:50,0.533,0.777,0.477,0.945,0.681,0.316,0.561,0.534,�k�k��,6.4,�L
2023/05/23,18:00,0.533,0.775,0.477,0.945,0.681,0.316,0.561,0.532,�k,5.9,�L
2023/05/23,18:10,0.533,0.775,0.477,0.946,0.681,0.318,0.559,0.531,�k,7.5,�L
2023/05/23,18:20,0.533,0.775,0.474,0.943,0.681,0.316,0.557,0.532,�k�k��,9.2,�L
2023/05/23,18:30,0.534,0.775,0.478,0.945,0.680,0.317,0.558,0.532,�k�k��,8.7,�L
2023/05/23,18:40,0.534,0.776,0.477,0.946,0.680,0.317,0.560,0.530,�k�k��,9.4,�L
2023/05/23,18:50,0.534,0.777,0.476,0.941,0.680,0.319,0.558,0.530,�k�k��,8.9,�L
2023/05/23,19:00,0.535,0.777,0.476,0.947,0.681,0.318,0.558,0.531,�k�k��,9.5,�L
2023/05/23,19:10,0.535,0.778,0.477,0.946,0.680,0.318,0.558,0.532,�k�k��,8.9,�L
2023/05/23,19:20,0.534,0.777,0.478,0.946,0.682,0.317,0.558,0.533,�k,8.4,�L
2023/05/23,19:30,0.535,0.776,0.477,0.946,0.682,0.319,0.557,0.532,�k,9.1,�L
2023/05/23,19:40,0.534,0.770,0.476,0.943,0.678,0.320,0.557,0.529,�k,6.4,�L
2023/05/23,19:50,0.533,0.769,0.477,0.942,0.677,0.319,0.557,0.529,�k�k��,7.5,�L
2023/05/23,20:00,0.532,0.769,0.476,0.941,0.675,0.321,0.556,0.529,�k,7.1,�L
2023/05/23,20:10,0.534,0.767,0.477,0.940,0.678,0.319,0.556,0.529,�k,7.0,�L
2023/05/23,20:20,0.533,0.770,0.477,0.942,0.676,0.321,0.556,0.528,�k�k��,7.4,�L
2023/05/23,20:30,0.535,0.768,0.476,0.941,0.677,0.321,0.555,0.529,�k,7.9,�L
2023/05/23,20:40,0.534,0.769,0.476,0.941,0.677,0.318,0.556,0.530,�k�k��,8.1,�L
2023/05/23,20:50,0.532,0.771,0.476,0.939,0.679,0.319,0.557,0.530,�k�k��,8.1,�L
2023/05/23,21:00,0.533,0.772,0.475,0.940,0.678,0.318,0.556,0.530,�k,8.4,��
2023/05/23,21:10,0.532,0.770,0.474,0.940,0.678,0.317,0.557,0.530,�k,8.2,�L
2023/05/23,21:20,0.531,0.770,0.474,0.937,0.678,0.318,0.557,0.531,�k,6.9,�L
2023/05/23,21:30,0.531,0.771,0.475,0.941,0.678,0.318,0.556,0.531,�k�k��,6.7,�L
2023/05/23,21:40,0.532,0.772,0.475,0.940,0.676,0.318,0.555,0.531,�k�k��,6.6,�L
2023/05/23,21:50,0.531,0.771,0.475,0.941,0.677,0.316,0.556,0.529,�k�k��,7.4,�L
2023/05/23,22:00,0.532,0.772,0.473,0.940,0.678,0.317,0.556,0.531,�k�k��,7.3,�L
2023/05/23,22:10,0.532,0.770,0.475,0.941,0.676,0.317,0.556,0.530,�k�k��,7.4,�L
2023/05/23,22:20,0.532,0.771,0.474,0.939,0.676,0.316,0.555,0.531,�k�k��,7.7,�L
2023/05/23,22:30,0.531,0.772,0.473,0.938,0.676,0.317,0.557,0.529,�k��,7.1,�L
2023/05/23,22:40,0.530,0.771,0.474,0.941,0.676,0.318,0.557,0.529,�k�k��,8.5,�L
2023/05/23,22:50,0.531,0.771,0.474,0.941,0.679,0.316,0.556,0.532,�k�k��,7.3,�L
2023/05/23,23:00,0.531,0.772,0.475,0.941,0.677,0.317,0.558,0.529,�k�k��,7.7,�L
2023/05/23,23:10,0.531,0.773,0.474,0.943,0.678,0.317,0.558,0.530,�k��,6.7,��
2023/05/23,23:20,0.530,0.772,0.474,0.940,0.676,0.317,0.558,0.531,�k�k��,8.0,�L
2023/05/23,23:30,0.531,0.773,0.473,0.940,0.680,0.316,0.556,0.531,�k�k��,7.7,��
2023/05/23,23:40,0.529,0.775,0.473,0.941,0.677,0.316,0.557,0.530,�k�k��,7.3,��
2023/05/23,23:50,0.531,0.772,0.474,0.942,0.678,0.317,0.558,0.530,�k�k��,7.3,��
